Location: Wavehorne
(51.0500°N, 0.8333°E)
Time: 20:01:09
(UTC+00:00)

USA 290 - Pass Details

Date: 20 June 2021
Orbit: 401 x 412 km, 73.6° (Epoch: 01 August)

Event Time Altitude Azimuth Distance (km) Brightness Sun altitude
Exits shadow 02:44:25 - 234° (SW) 1,564 4.5 -7.0°
Reaches altitude 10° 02:44:41 10° 236° (SW) 1,466 4.4 -7.0°
Maximum altitude 02:47:37 32° 302° (WNW) 718 3.4 -6.7°
Drops below altitude 10° 02:50:35 10° 9° (N) 1,472 6.1 -6.4°
Sets 02:52:45 0° 19° (NNE) 2,336 7.6 -6.2°
